COSMOS 2191

Satellite information

Favourite Embed

Satellite Type and Status

PAYLOADIN ORBIT

Key statistics

Satellite COSMOS 2191 at a glance.

Uptime

12151

Days in orbit

Revolutions

≈ 12.4

Per day

Orbit

LEO

Low Earth Orbit

Inclination

74.0

Latest

Satellite identification and parameters

Extended collection of information and parameters for COSMOS 2191.

Object identification

Identified? True

Debris? False

Object name: COSMOS 2191

International designator: 1992-030E

Object number (NORAD): 21980

Object ID (CCSDS): 21980

Country: COMMONWEALTH OF INDEPENDENT STATES (CIS)

Current information (Y/N): Y

RCS size: MEDIUM

Orbital parameters

Period: 115.703 minutes

Inclination: 74.0008 deg

SMA: 7865.436 km

Apoapsis: 1501.684 km

Periapsis: 1472.917 km

RAAN: 105.677 deg

Eccentricy: 0.00182868

Argument of periapsis: 181.8355 deg

Mean anomaly: 238.9503 deg

Mean motion: 12.44567887 rev/day

Mean motion (dot): 0.0000001 rev/day2

B* drag term: 0.00018158909 1/REarth

Two-line elements (TLE)

Creation date: Sept. 8, 2025, 6:18 p.m.

Reference frame: TEME

Reference center: EARTH

Epoch: Sept. 8, 2025, 2:27 p.m. UTC

TLE line 0: 0 COSMOS 2191

TLE line 1: 1 21980U 92030E 25251.60217873 .00000010 00000-0 18159-3 0 9991

TLE line 2: 2 21980 74.0008 105.6770 0018287 181.8355 238.9503 12.44567887511137

Live tracking on map

Real-time ground track for satellite COSMOS 2191.

In-orbit conjunctions

There are no conjunctions computed for COSMOS 2191, at the moment. Check back to stay up to date, as we update our databases every day.

Go to all conjunctions

Associated space launch

Military communications satellites

COSMOS 2191 was lifted into orbit during the mission ‘Kosmos-3M | Strela-1M 361-368’, on board a Kosmos-3M space rocket.

The launch took place on June 3, 1992, 12:50 a.m. from 133/3 (133L).

For more information about the launch, click the button.

Launch to space Kosmos-3M | Strela-1M 361-368
Kosmos-3M | Strela-1M 361-368

Agency: N/A

Status: Launch Successful

Launch date: June 3, 1992, 12:50 a.m. UTC

Rocket: Kosmos-3M

Launch pad: 133/3 (133L)

Location: Plesetsk Cosmodrome, Russian Federation

...

Latest news about this satellite

There are no fresh news available about this satellite. Check back as we update our databases every day.


Newsletter sign-up

Weekly statistics, charts and insights to help you stay on top of the space industry.